User: anonymous   Login
Location: Vancouver
(49.2500°N, 123.1330°W)
Time: 05:39:28
(UTC-07:00)
Language:

Iridium 21 - Orbit

View from above orbital plane
View from above orbital plane
View from above satellite
View from above satellite

Ground track
Ground track

The orbit data is extracted from the following two-line orbital elements,

1 25778U 99032B   16150.18238507  .00000160  00000-0  50015-4 0  9991
2 25778  86.3978  24.5067 0002052  83.5747 276.5682 14.34216113893078
Epoch (UTC): 29 May 2016 04:22:38
Eccentricity: 0.0002052
inclination: 86.3978°
perigee height: 776 km
apogee height: 779 km
right ascension of ascending node: 24.5067°
argument of perigee: 83.5747°
revolutions per day: 14.34216113
mean anomaly at epoch: 276.5682°
orbit number at epoch: 89307

The dashed part of the orbit path shows where the satellite is in the earth's shadow,  

DLR